Regional Weather Roundup
Issued by NWS San Diego, CA

Current Version | Previous Version | Text Only | Print | Product List | Glossary On
Versions: 1 2 3 4 5 6 7 8 9 10 11 12 13 14 15 16 17 18 19 20 21 22 23 24 25 26 27 28 29 30 31 32 33 34 35 36 37 38 39 40 41 42 43 44 45 46 47 48 49 50
000
ASUS46 KSGX 031311
RWRSGX

SAN DIEGO HOURLY WEATHER ROUNDUP
NATIONAL WEATHER SERVICE SAN DIEGO CA
600 AM PDT MON AUG 03 2020

NOTE: "FAIR" INDICATES FEW OR NO CLOUDS BELOW 12,000 FEET WITH NO
SIGNIFICANT WEATHER AND/OR OBSTRUCTIONS TO VISIBILITY.

CAZ042-043-060-061-PZZ750-775-031400-

GREATER SAN DIEGO AREA

CITY           SKY/WX    TMP DP  RH WIND       PRES   REMARKS
SAN DIEGO AP   CLOUDY    66  63  90 CALM      29.95R
CHULA VISTA      N/A     65  62  91 CALM      29.84R
BROWN FIELD    FOG       63  63 100 CALM      29.94R VSB 1/2
MIRAMAR MCAS   CLOUDY    67  65  93 N6        29.94R FOG
MONTGOMERY FLD CLOUDY    66  63  90 N7        29.94R FOG
GILLESPIE FLD  FAIR      63  61  94 CALM      29.93R
LEMON GROVE      N/A     64  62  93 CALM      29.91R

$$

NORTH SAN DIEGO COUNTY

CITY           SKY/WX    TMP DP  RH WIND       PRES   REMARKS
CAMP PENDLETON CLOUDY    66  60  81 CALM      29.93R
OCEANSIDE AP   CLOUDY   N/A N/A N/A CALM      29.93R
OCEANSIDE HBR    N/A     65  64  97 NW2       30.00S
CARLSBAD       CLOUDY    65  62  90 CALM      29.93R
ENCINITAS        N/A     65  63  93 CALM        N/A
LA JOLLA SCRIP   N/A     65  61  87 CALM      29.93R
FALLBROOK      FOG       61  61 100 CALM      29.95R VSB<1/4
ESCONDIDO        N/A     65  62  90 W2        29.92R
SAN MARCOS       N/A     64  61  90 CALM      29.96R
RANCHO BERNARD   N/A     64  62  93 W1        29.92R
POWAY            N/A     61  59  92 CALM      29.94R

$$

EAST SAN DIEGO COUNTY

CITY           SKY/WX    TMP DP  RH WIND       PRES   REMARKS
RAMONA         CLEAR     57  54  89 CALM      29.96R
LA MESA          N/A     63  57  81 CALM      29.87R
JAMUL            N/A     60  58  94 CALM      29.91R
DESCANSO N       N/A     57  35  43 NE6       29.92R
CAMPO            N/A     54  39  57 NE7       30.00R

$$

ORANGE COUNTY AND THE LOS ANGELES BASIN

CITY           SKY/WX    TMP DP  RH WIND       PRES   REMARKS
JOHN WAYNE AP  PTCLDY    68  62  81 CALM      29.93R
LAGUNA BEACH     N/A     66  64  92 CALM      29.92S
LAKE FOREST FR   N/A     62  58  87 E2        29.81R
HUNTINGTON BCH   N/A     65  64  96 N3        29.93R
FULLERTON      CLEAR     65  60  84 CALM      29.92S
LONG BEACH     CLOUDY    65  62  90 CALM      29.93S
L.A. AP        PTCLDY    66  61  84 CALM      29.93R FOG
L.A. DOWNTOWN  CLEAR     68  62  81 CALM      29.92S

$$

THE INLAND EMPIRE

CITY           SKY/WX    TMP DP  RH WIND       PRES   REMARKS
CORONA         CLEAR     59  58  96 CALM      29.95S
UPLAND AP      FAIR      68  54  60 CALM      29.96S
CHINO          CLEAR     65  58  78 CALM      29.96R
ONTARIO        PTCLDY    66  60  81 CALM      29.95R
SAN BERNARDINO FAIR      68  54  60 S3        29.96R
RIVERSIDE AP   CLEAR     65  59  81 CALM      29.95R
MORENO VALLEY    N/A     65  60  83 NE1       29.89R
MARCH ARB      CLEAR     59  53  82 CALM      29.97R
HORSETHIEF CYN   N/A     65  50  58 CALM      29.90R
LAKE ELSINORE    N/A     62  55  79 CALM      29.85R
HEMET AP       FAIR      63  56  79 MISG      29.97S
FRENCH VALLEY  FAIR      63  57  82 CALM      29.97R
TEMECULA         N/A     63  60  91 CALM      29.94R

$$

SAN BERNARDINO AND RIVERSIDE COUNTY MOUNTAINS

CITY           SKY/WX    TMP DP  RH WIND       PRES   REMARKS
BIG BEAR AP    CLEAR     43  14  31 CALM      30.31S
BIG BEAR LAKE    N/A     49  18  28 W1        29.90R
LK ARROWHEAD N   N/A     56  26  31 CALM      29.84R
WRIGHTWOOD       N/A     71  13  11 CALM      29.80R
ANGELUS OAKS     N/A     63  24  22 CALM      29.79R
GARNER VALLEY    N/A     45  35  68 CALM      29.85R
TORO PEAK        N/A     66  -3   6 W1          N/A

$$

SOUTHERN DESERT INCLUDING THE COACHELLA VALLEY

CITY           SKY/WX    TMP DP  RH WIND       PRES   REMARKS
PALM SPRINGS   CLEAR     83  52  34 N3        29.82R
THOUSAND PALMS   N/A     88  51  27 N12       29.75R
PALM DESERT      N/A     78  59  52 CALM      31.75S
INDIO            N/A     89  51  27 W6        29.78R
THERMAL        CLEAR     75  53  46 S6        29.77R
BORREGO AP     FAIR      73  39  29 S5        29.81R
OCOTILLO WELLS   N/A     82  31  16 CALM      29.73R
CANEBRAKE        N/A     91  24   9 NW1       29.72R
BLYTHE         CLEAR     83  48  29 CALM      29.82R
IMPERIAL AP    CLEAR     82  76  81 S7        29.77R
YUMA AZ        CLEAR     85  62  46 CALM      29.80R

$$

UPPER DESERT

CITY           SKY/WX    TMP DP  RH WIND       PRES   REMARKS
VICTORVILLE AP CLEAR    N/A N/A N/A CALM      30.01
HESPERIA         N/A     69  38  32 SW6       29.86R
APPLE VALLEY     N/A     49  45  84 CALM      29.91R
PALMDALE       CLEAR     72  30  21 S7        30.01R
LANCASTER      CLEAR     78  39  24 W20G29    29.98R
EDWARDS AFB    CLEAR     72  33  24 SW15      29.95R
GRAY BUTTE AP  FAIR      73  25  16 W9        30.00R
DAGGETT        CLEAR     78  30  17 W10       29.92R
29 PALMS N     CLEAR     77  25  14 NW7       29.99R
29 PALMS JTNP    N/A     76  32  20 S1        29.74R
NEEDLES        CLEAR     82  40  22 W9        29.83R

$$

REGIONAL REPORTS

CITY           SKY/WX    TMP DP  RH WIND       PRES   REMARKS
SANTA BARBARA  CLOUDY    59  57  93 CALM      29.93S
LAS VEGAS NV   CLEAR     81  23  11 SW5       29.91R
PHOENIX AZ     MOCLDY    91  59  33 NE5       29.87R
TIJUANA          N/A    N/A N/A N/A MISG        N/A
ENSENADA NW      N/A     65  32  28 CALM      29.90R

$$

OFFSHORE ISLANDS

CITY           SKY/WX    TMP DP  RH WIND       PRES   REMARKS
CATALINA ARPT  CLEAR     75  38  26 NE5       29.97R
SAN CLEMENTE I   N/A    N/A N/A N/A NE3       29.95R
SAN NICOLAS IS FOG       60  59  96 NW9       29.93R VSB 1/4

$$

MARINE AND OFFSHORE BUOY REPORTS

STATION/POSITION SKY/WX   TEMP    WIND        PRES    VSBY  SWELL
                          AIR SEA DIR/SP/G                  HT/PER/DIR
                          (F)     (DEG/KT/KT) (MB)    (MI)  (FT/S/D)
TANNER BANKS               63     320/ 14/ 17 1013.6F         3/300/ 8
S CLEMENTE BASIN           64                 1013.5R         3/230/11
SAN NICOLAS IS.               61                N/A           2/270/11
SO. S. ROSA ISLA           60 59              1014.4S         5/300/ 8
W. S. BARBARA CH              58  310/ 12/ 16 1014.1
M. S. BARBARA CH           59 60   90/  6/ 10 1014.4S         3/260/ 8
S. MONICA BASIN            64 68   CALM  /  2 1013.7
S PEDRO CHANNEL               70                N/A           2/190/11
OCEANSIDE OFFSHR              70                N/A           2/200/15
TORREY PINES OTR              68                N/A           2/190/15
SAN DIEGO BAY                 69              1013.2R
POINT LOMA SOUTH              71                N/A           2/190/15

$$





USA.gov is the U.S. government's official web portal to all federal, state and local government web resources and services.